Regional Weather Roundup
Issued by NWS Wakefield, VA

Home | Current Version | Previous Version | Graphics & Text | Print | Product List | Glossary On
Versions: 1 2 3 4 5 6 7 8 9 10 11 12 13 14 15 16 17 18 19 20 21 22 23 24 25 26 27 28 29 30 31 32 33 34 35 36 37 38 39 40 41 42 43 44 45 46 47 48 49 50
000
ASUS41 KAKQ 071715
RWRAKQ

REGIONAL WEATHER ROUNDUP
NATIONAL WEATHER SERVICE WAKEFIELD VA
100 PM EDT TUE JUL 07 2015

Note: "fair" indicates few or no clouds below 12,000 feet with no
significant weather and/or obstructions to visibility. * = Denotes
station may not report precipitation (e.g., rain,snow,etc.),
thunder or fog.

VAZ042-051-052>054-056-071800-
NORTHERN VIRGINIA

CITY           SKY/WX    TMP DP  RH WIND       PRES   REMARKS
WASH NATIONAL  MOSUNNY   86  74  67 S13       30.03F
DULLES         PTSUNNY   85  68  56 W7        30.05S
FORT BELVOIR   MOSUNNY   86  71  59 S6        30.04F
QUANTICO       MOSUNNY   83  73  72 S9        30.05F
FREDERICKSBRG* SUNNY     89  69  51 SW8       30.05S
STAFFORD*      MOSUNNY   84  68  57 W5        30.10S
WARRENTON      PTSUNNY   88  71  57 SW5       30.06S
CULPEPER*      SUNNY     85  68  57 CALM      30.06F
MANASSAS*      NOT AVBL
LEESBURG*      MOSUNNY   88  72  58 SW6       30.06S
WINCHESTER     MOSUNNY   86  68  54 SW9       30.06F
FRONT ROYAL*   FAIR      82  68  61 S7        30.06F
LURAY*         FAIR      86  68  54 S5        30.08F
$$

VAZ048-049-060>072-079>083-071800-
CENTRAL AND SOUTH CENTRAL VIRGINIA

CITY           SKY/WX    TMP DP  RH WIND       PRES   REMARKS
RICHMOND       MOSUNNY   87  71  58 SW9       30.07F
CHESTERFIELD*  NOT AVBL
PETERSBURG*    MOSUNNY   87  75  66 W8        30.09F HX  96
HANOVER        SUNNY     86  67  52 SW9       30.09S
TAPPAHANNOCK*  SUNNY     87  68  52 SW7       30.07F
QUINTON*       NOT AVBL
CHARLOTTSVILLE SUNNY     85  67  54 CALM      30.08F
GORDONSVILLE*  FAIR      84  68  58 W6        30.07S
ORANGE*        SUNNY     88  66  48 S5        30.09S
LOUISA*        SUNNY     88  70  55 SW8       30.07S
BUMPASS*       FAIR      85  70  60 SW6       30.08S
FARMVILLE*     SUNNY     87  66  50 SW8       30.09S
CREWE*         FAIR      86  69  57 CALM      30.10S
FORT PICKETT*  NOT AVBL
CHASE CITY*    FAIR      89  72  57 CALM      30.11F HX  95
CLARKSVILLE*   FAIR      86  70  58 S5        30.11S
SOUTH HILL*    SUNNY     85  69  58 CALM      30.16F
LAWRENCEVILLE* NOT AVBL
EMPORIA*         N/A     86  72  62 S6        30.11F
$$

VAZ088>098-071800-
SOUTHEAST VIRGINIA

CITY           SKY/WX    TMP DP  RH WIND       PRES   REMARKS
NORFOLK        MOSUNNY   88  72  58 SW16      30.08F
VIRGINIA BEACH MOSUNNY   90  74  59 SW10      30.08F HX  99
NORFOLK NAVAL  MOSUNNY   87  74  64 SW10G16   30.09F HX  95
WEST POINT*    SUNNY     89  70  53 S7        30.08F
SALUDA*        FAIR      85  71  62 SW6       30.07S
NEWPORT NEWS   SUNNY     86  74  67 S12       30.08F
LANGLEY AFB    MOSUNNY   86  74  66 S10       30.06F
FORT EUSTIS    MOSUNNY   86  84  94 VRB5      30.07S HX 108
WILLIAMSBURG*  SUNNY     91  73  55 SW6       30.09S HX 100
HR EXEC AP*    PTSUNNY   88  75  66 S10G16    30.10F HX  97
FRANKLIN*      PTSUNNY   85  75  71 SW7       30.10F
WAKEFIELD      SUNNY     87  72  60 VRB3      30.09F
$$

VAZ020-022-025-037-045-071800-
WEST CENTRAL AND SOUTHWEST VIRGINIA

CITY           SKY/WX    TMP DP  RH WIND       PRES   REMARKS
STAUNTON*      PTSUNNY   85  67  55 SW5       30.12F
WAYNESBORO*    FAIR      81  67  62 SW5       30.13S
HOT SPRINGS VA PTSUNNY   73  65  74 W10       30.24F
LYNCHBURG      SUNNY     82  68  62 SW5       30.13F
DANVILLE       SUNNY     87  69  54 W6        30.12F
SOUTH BOSTON*  FAIR      86  68  55 MISG      30.11F
MARTINSVILLE   SUNNY     87  68  52 SW3       30.16F
ROANOKE        MOSUNNY   83  66  56 W10       30.15S
BLACKSBURG     CLOUDY    79  70  73 W5        30.22S
DUBLIN*        SUNNY     82  66  59 SW12      30.20S
MARION*        MOSUNNY   79  68  69 W8G17     30.24F
HILLSVILLE*    MOSUNNY   78  65  65 S8        30.21F
RICHLANDS*     FAIR      76  69  77 SW7G20    30.22F
WISE*          MOSUNNY   77  64  65 SW12      30.22F
ABINGDON*      PTSUNNY   80  69  69 W8        30.20S
$$

MDZ021>025-VAZ099-100-071800-
SOUTHERN MARYLAND AND THE DELMARVA PENINSULA

CITY           SKY/WX    TMP DP  RH WIND       PRES   REMARKS
PATUXENT RIVER MOSUNNY   86  72  62 SW8       30.04F
BAY BRIDGE APT   N/A     82  68  61 CALM      30.03F
LEONARDTOWN    MOSUNNY   84  68  58 W7        30.06F
DOVER          MOSUNNY   86  73  65 SW6       30.02F HAZE
GEORGETOWN     SUNNY     87  71  58 SW9       30.04F
EASTON         MOSUNNY   86  75  70 SW8       30.08F HX  95
CAMBRIDGE      SUNNY     86  70  58 SW7       30.04F
SALISBURY      MOSUNNY   85  73  67 SW14      30.05F
OCEAN CITY     SUNNY     86  72  62 SW9       30.05F
WALLOPS ISLAND MOSUNNY   87  72  60 SW12      30.07F
ACCOMACK*      SUNNY     86  73  66 SW9         N/A
$$

NCZ012>017-030>032-071800-
NORTH CENTRAL AND EASTERN NORTH CAROLINA

CITY           SKY/WX    TMP DP  RH WIND       PRES   REMARKS
ROANOKE RAPIDS FAIR      86  73  66 S8        30.11S
RALEIGH        MOSUNNY   87  72  60 S7        30.12F
ELIZABETH CITY SUNNY     87  75  67 S10       30.11F HX  96
AHOSKIE*       SUNNY     87  74  65 S8        30.10F
EDENTON*         N/A     87  73  64 SW10      30.11F
CURRITUCK*     NOT AVBL
KILL DEVIL HLS SUNNY     92  68  45 S7        30.11F HX  96
MANTEO         SUNNY     87  69  54 W7        30.13S
CAPE HATTERAS  SUNNY     83  74  74 SW12      30.15F
TARBORO*         N/A     88  74  61 S5        30.11F HX  96
GOLDSBORO      MOSUNNY   89  72  56 W7        30.10F HX  96
WASHINGTON     SUNNY     88  71  58 SW5       30.13S
GREENVILLE     MOSUNNY   88  73  62 SW9       30.13F HX  96
NEW BERN       MOSUNNY   89  72  56 SW8       30.14F HX  96
WILMINGTON     MOSUNNY   90  71  53 SW10      30.14F HX  96
$$

VAZ048-071800-
ELSEWHERE

CITY           SKY/WX    TMP DP  RH WIND       PRES   REMARKS
HARRISBURG PA  MOSUNNY   82  71  69 W7        30.01F
BALTIMORE      MOSUNNY   86  69  56 W6        30.02F
ANNAPOLIS      PTSUNNY   81  74  79 SE9       30.02F
ANDREWS AFB    MOSUNNY   85  79  80 VRB5      30.04S HX  98
PHILADELPHIA   MOSUNNY   87  69  54 SW10      30.01F
HENDERSON NC   SUNNY     85  67  53 S6        30.12S
GREENSBORO     PTSUNNY   85  66  53 SW9       30.13F
ROCKY MOUNT    MOSUNNY   91  73  55 S10G16    30.11F HX  99
$$

VAZ100-071800-
MARINE

STATION/POSITION TIME  TEMP    WIND        PRES    WAVE   SWELL
                       AIR SEA DIR/SP/G            HT/PER HT/PER
                 (UTC) (F)     (DEG/KT/KT) (MB)    (FT/S) (FT/S)
BRANDYWINE LGT   1606   80 76  230/  5/  6 1017.6F
CAPE MAY NJ      1600   82 79  220/  5/  6 1017.2F
LEWES DE         1630   86 74  220/  6/ 10 1017.2F
15NM E FENWICK I 1650   76 75              1017.4F   3/ 5
OCEAN-CITY-INLET 1600   83 74  240/  7/ 12 1017.7F
WACHAPREAGUE VA  1606   85 82  220/  8/ 11 1018.8F
GOOSES REEF MD   1700   81 81  150/  6/  6 1018.2F
COVE POINT MD    1600   80     170/  7/  8 1018.3F
SOLOMONS ISLAND  1600      80                N/A
BISHOPS HEAD MD  1612   81     200/  9/ 11 1017.7F
PINEY POINT MD   1600          150/  5/  5   N/A
CAMBRIDGE MD     1600   83 80  240/  5/  8 1017.4F
LEWISETTA VA     1600   84 81  230/  4/  6 1017.7F
RAPPAHANNOCK LGT 1600          180/ 13/ 14 1019.2F
STINGRAY PT      1700   84 82  210/  8/ 10 1018.3F   1/ 3
YORK RVR RNG VA  1630   82     210/  8/ 10 1018.1
YORKTOWN VA      1630   83 80  250/  7/ 11 1018.3F
JAMESTOWN VA     1700   84 84  230/  6/  8   N/A
DOMINION TERM VA 1600   82     240/  7/  9 1018.9F
KIPTOPEKE VA     1600      85  240/ 11/ 12   N/A
CHES BAY BRIDGE  1612   82 77  220/  7/  8 1018.6F
CAPE HENRY VA    1606   85     210/  6/ 10   N/A
CHESAPEAKE LGHT  1600   80     200/ 12/ 13 1019.8F
WILLOUBY STN VA  1600   81     250/  8/  9 1019.8F
CAPE HENRY BUOY  1628      79                N/A     3/ 9   2/13
1ST LANDING BUOY 1700      80              1018.3F   2/ 4
CAPE CHARLES BUO 1626      79                N/A     2/ 8   2/ 8
OFFSHORE WE BUOY 1611      78                N/A     3/ 9   2/ 9
64NM E OF VA BCH 1650   78 77  190/ 10/ 12 1019.4F   3/ 9   2/ 9
DUCK PIER NC     1606   83 69  220/ 10/ 12   N/A
44100 DUCK FRF   1624      79                N/A     2/ 9   2/13
44056 DUCK FRF   1611      76                N/A     2/14   2/14
OREGON INLET NC  1612   81 82  200/ 16/ 18 1020.4F
HATTERAS NC      1630   82 80  210/ 10/ 13 1020.8
DIAMOND SHLS NC  1650   81 83  220/ 14/ 16 1020.8F   3/ 9   2/ 9
CAPE LOOKOUT NC  1700   82     210/ 10/ 13 1020.9F
$$



USA.gov is the U.S. government's official web portal to all federal, state and local government web resources and services.